This demonstration page uses our WeatherBlox Daily Observations layout. Learn more.

Left ArrowRight Arrow

Hourly Observations for February 21, 2015

Temp ( °F °C ) Dew Point ( °F °C ) Humidity (%) Winds ( mph kmh ) Pressure ( in mb ) Visibility ( mi km ) Precip ( " mm )
12:53 am 00:53 Clear 64 17.8 20 -6.7 18 18 WSW 15 24 29.66 1004 10 16 0.00 0.00
1:53 am 01:53 Clear 64 17.8 21 -6.1 19 19 W 10 17 29.67 1005 10 16 0.00 0.00
2:53 am 02:53 Clear 61 16.1 23 -5 23 23 W 10 17 29.70 1006 10 16 0.00 0.00
3:53 am 03:53 Clear 57 13.9 25 -3.9 29 29 SW 9 15 29.70 1006 10 16 0.00 0.00
4:53 am 04:53 Clear 54 12.2 28 -2.2 37 37 NNE 21 33 29.75 1008 10 16 0.00 0.00
5:53 am 05:53 Clear 50 10 30 -1.1 46 46 NNE 22 35 29.81 1010 10 16 0.00 0.00
6:53 am 06:53 Clear 48 8.9 30 -1.1 50 50 NNE 15 24 29.85 1011 10 16 0.00 0.00
7:53 am 07:53 Sunny 46 7.8 31 -0.6 56 56 NNE 8 13 29.88 1012 10 16 0.00 0.00
8:53 am 08:53 Sunny 50 10 33 0.6 52 52 NNE 10 17 29.92 1013 10 16 0.00 0.00
9:53 am 09:53 Sunny 53 11.7 34 1.1 48 48 NE 12 19 29.94 1014 10 16 0.00 0.00
10:53 am 10:53 Sunny 56 13.3 34 1.1 44 44 NNE 3 6 29.93 1014 10 16 0.00 0.00
11:53 am 11:53 Sunny 59 15 35 1.7 41 41 ESE 6 9 29.92 1013 10 16 0.00 0.00
12:53 pm 12:53 Sunny 61 16.1 35 1.7 38 38 undefined N/A 29.87 1012 10 16 0.00 0.00
1:53 pm 13:53 Sunny 64 17.8 36 2.2 35 35 S 9 15 29.83 1010 10 16 0.00 0.00
2:53 pm 14:53 Sunny 66 18.9 35 1.7 32 32 S 8 13 29.80 1009 10 16 0.00 0.00
3:53 pm 15:53 Sunny 67 19.4 35 1.7 31 31 ESE 7 11 29.78 1008 10 16 0.00 0.00
4:53 pm 16:53 Sunny 69 20.6 35 1.7 29 29 SE 8 13 29.74 1007 10 16 0.00 0.00
5:53 pm 17:53 Sunny 67 19.4 37 2.8 33 33 SE 9 15 29.76 1008 10 16 0.00 0.00
6:53 pm 18:53 Clear 63 17.2 37 2.8 38 38 SE 8 13 29.77 1008 10 16 0.00 0.00
7:53 pm 19:53 Clear 59 15 37 2.8 44 44 SE 7 11 29.79 1009 10 16 0.00 0.00
8:53 pm 20:53 Clear 56 13.3 37 2.8 49 49 E 6 9 29.81 1010 10 16 0.00 0.00
9:53 pm 21:53 Clear 56 13.3 36 2.2 47 47 ESE 8 13 29.80 1009 10 16 0.00 0.00
10:53 pm 22:53 Clear 57 13.9 36 2.2 45 45 SE 13 20 29.80 1009 10 16 0.00 0.00
11:53 pm 23:53 Mostly Cloudy 57 13.9 36 2.2 45 45 SE 14 22 29.79 1009 10 16 0.00 0.00

Powered by AerisWeather